{"data":{"norad_id":61631,"intl_designator":"2024-191L","name":"STARLINK-32348","alt_names":[],"object_type":"PAYLOAD","status":"ACTIVE","operator":null,"country":"US","launch_date":"2024-10-23","launch_site_code":"AFETR","launch_vehicle":null,"mission":null,"orbit_class":"UNKNOWN","rcs_meters":null,"size_class":null,"mass_kg":null,"dimensions":null,"purposes":["comms"],"wikipedia_slug":null,"has_3d_model":false,"image_url":null,"decayed_at":null,"tle_current":{"epoch":"2026-05-25T02:45:46.571040Z","epoch_age_seconds":69074,"freshness":"FRESH","line1":"1 61631U 24191L   26145.11512235  .00000459  00000+0  26204-4 0  9997","line2":"2 61631  43.0019  86.4463 0001030 254.5300 105.5438 15.27579030 89181","mean_motion":15.2757903,"eccentricity":0.000103,"inclination_deg":43.0019,"raan_deg":86.4463,"arg_perigee_deg":254.53,"mean_anomaly_deg":105.5438,"bstar":2.6204e-5,"rev_number":8918,"period_min":94.266808572254,"perigee_km":482.34529810309,"apogee_km":483.7587030372,"semimajor_km":6861.1890005701,"source":"CELESTRAK","updated_at":"2026-05-25T13:38:19.408485Z"}}}